TimeCST,TemperatureF,Dew PointF,Humidity,Sea Level PressureIn,VisibilityMPH,Wind Direction,Wind SpeedMPH,Gust SpeedMPH,PrecipitationIn,Events,Conditions,WindDirDegrees,DateUTC
12:55 AM,70.5,66.7,88,29.87,10.0,SSE,11.5,-,N/A,,Partly Cloudy,160,2012-11-11 06:55:00
1:55 AM,68.9,66.7,93,29.85,10.0,SSE,8.1,-,N/A,,Partly Cloudy,150,2012-11-11 07:55:00
2:55 AM,70.5,66.7,88,29.84,10.0,South,15.0,-,N/A,,Scattered Clouds,170,2012-11-11 08:55:00
3:41 AM,69.8,66.2,88,29.84,10.0,South,12.7,-,N/A,,Mostly Cloudy,180,2012-11-11 09:41:00
3:54 AM,71.6,66.2,83,29.83,10.0,South,11.5,-,N/A,,Scattered Clouds,180,2012-11-11 09:54:00
3:55 AM,70.7,67.1,88,29.83,10.0,South,12.7,-,N/A,,Scattered Clouds,180,2012-11-11 09:55:00
4:55 AM,70.0,67.3,91,29.85,10.0,South,9.2,-,N/A,,Partly Cloudy,190,2012-11-11 10:55:00
5:55 AM,69.6,67.6,93,29.87,10.0,South,9.2,-,N/A,,Scattered Clouds,180,2012-11-11 11:55:00
6:55 AM,67.8,67.3,98,29.88,10.0,South,6.9,-,N/A,,Partly Cloudy,170,2012-11-11 12:55:00
7:55 AM,69.1,68.0,96,29.89,10.0,SSE,8.1,-,N/A,,Clear,160,2012-11-11 13:55:00
8:55 AM,72.3,66.7,83,29.91,10.0,South,11.5,-,N/A,,Clear,180,2012-11-11 14:55:00
9:55 AM,75.7,65.3,70,29.92,10.0,South,16.1,24.2,N/A,,Clear,180,2012-11-11 15:55:00
10:55 AM,78.3,62.2,58,29.91,10.0,South,17.3,27.6,N/A,,Clear,190,2012-11-11 16:55:00
11:55 AM,80.1,61.7,53,29.88,10.0,SSW,18.4,25.3,N/A,,Clear,200,2012-11-11 17:55:00
12:55 PM,79.3,60.1,52,29.88,9.0,South,13.8,-,N/A,,Partly Cloudy,190,2012-11-11 18:55:00
1:35 PM,80.6,59.0,48,29.87,4.0,WSW,12.7,17.3,N/A,,Haze,240,2012-11-11 19:35:00
1:48 PM,80.6,59.0,48,29.87,5.0,SW,6.9,-,N/A,,Haze,220,2012-11-11 19:48:00
1:55 PM,80.4,59.7,49,29.87,6.0,WSW,9.2,-,N/A,,Haze,240,2012-11-11 19:55:00
2:08 PM,80.6,59.0,48,29.87,4.0,WSW,9.2,-,N/A,,Haze,250,2012-11-11 20:08:00
2:16 PM,80.6,60.8,51,29.87,5.0,SW,8.1,-,N/A,,Haze,220,2012-11-11 20:16:00
2:28 PM,80.6,60.8,51,29.87,4.0,West,9.2,-,N/A,,Haze,260,2012-11-11 20:28:00
2:55 PM,79.7,61.7,54,29.87,4.0,West,8.1,-,N/A,,Haze,270,2012-11-11 20:55:00
3:18 PM,78.8,62.6,57,29.88,5.0,West,3.5,-,N/A,,Haze,280,2012-11-11 21:18:00
3:55 PM,79.5,62.1,55,29.89,5.0,West,8.1,-,N/A,,Haze,280,2012-11-11 21:55:00
3:58 PM,78.8,62.6,57,29.89,4.0,West,5.8,-,N/A,,Haze,270,2012-11-11 21:58:00
4:01 PM,78.8,62.6,57,29.89,5.0,West,5.8,-,N/A,,Haze,270,2012-11-11 22:01:00
4:29 PM,80.6,62.6,54,29.90,4.0,West,6.9,-,N/A,,Haze,280,2012-11-11 22:29:00
4:55 PM,79.7,62.6,56,29.91,4.0,WNW,5.8,-,N/A,,Haze,290,2012-11-11 22:55:00
4:57 PM,78.8,62.6,57,29.91,5.0,WNW,5.8,-,N/A,,Haze,290,2012-11-11 22:57:00
5:55 PM,75.9,62.1,62,29.94,10.0,Calm,Calm,-,N/A,,Clear,0,2012-11-11 23:55:00
6:55 PM,73.2,46.2,38,29.99,10.0,North,16.1,24.2,N/A,,Clear,360,2012-11-12 00:55:00
7:55 PM,69.4,37.0,31,30.03,10.0,North,9.2,-,N/A,,Clear,360,2012-11-12 01:55:00
8:55 PM,68.0,36.7,32,30.09,10.0,NNE,5.8,-,N/A,,Mostly Cloudy,30,2012-11-12 02:55:00
9:55 PM,67.3,36.1,32,30.12,10.0,NE,5.8,-,N/A,,Mostly Cloudy,40,2012-11-12 03:55:00
10:55 PM,66.7,34.3,30,30.14,10.0,North,9.2,-,N/A,,Partly Cloudy,10,2012-11-12 04:55:00
11:55 PM,65.8,30.9,27,30.16,10.0,North,15.0,18.4,N/A,,Scattered Clouds,10,2012-11-12 05:55:00